Savannah-Hilton Head International Airport

Airport
ICAO code: 
KSAV
Summary
ICAO Region: 
NAM
Territory: 
Location: 
Savannah, Georgia,
Coordinates: 
Aerial View: 
32° 7' 43.707" N, 81° 12' 15.547" W
Metar
Observation
KSAV 210353Z 36006KT 9SM -RA BKN005 OVC010 13/13 A3011 RMK AO2 RAE12B39 SLP194 P0000 T01330133
Station
Savannah, Savannah International Airport
Date/Time
2022-01-21 03:53:00
Wind direction
360°
Wind speed
06 kts
Lowest cloud amount
broken clouds
Temperature
13.3°C
Dew point
13.3°C
Humidity
100%
Weather condition
light rain

Description

Savannah-Hilton Head International Airport is a public and military (ANG) use airport located 13 km northwest of the central business district of Savannah, a city in Chatham County, Georgia. It has been formerly known as Savannah International Airport, Travis Field and Chatham Field.

Climatology

Humid “subtropical” climate (Köppen climate classification Cfa) - characterized by hot, humid summers and cool winters. Significant amounts of precipitation occur in all seasons in most areas.

Runways

Designator Length Width Surface Rops
1/19 2134 46 CONC-G Yes/Yes
10/28 2850 46 CONC-G Yes/Yes
Airport map: 
Aerial View: 

SKYbrary Partners:

Safety knowledge contributed by: